Location: Unspecified
(0.0000°N, 0.0000°E)
Time: 04:53:00
(UTC+00:00)

Vanguard 2 Rocket - Pass Details

Date: 15 December 2017
Orbit: 556 x 3326 km, 32.9° (Epoch: 19 January)

Event Time Altitude Azimuth Distance (km) Brightness Sun altitude
Rises 14:04:41 0° 218° (SW) 2,839 10.1 50.9°
Reaches altitude 10° 14:06:47 10° 209° (SSW) 2,059 9.5 50.5°
Maximum altitude 14:11:06 38° 140° (SE) 1,238 8.0 49.6°
Drops below altitude 10° 14:17:34 10° 73° (ENE) 3,113 9.4 48.3°
Sets 14:21:27 0° 67° (ENE) 4,539 10.1 47.6°
